Location: *
(49.1466°N, 1.6216°E)
Time: 16:14:10
(UTC+00:00)

Daily predictions for brighter satellites

Satellite Brightness Start Highest point End
(mag) Time Altitude Azimuth Time Altitude Azimuth Time Altitude Azimuth
Okean 1-7 3.9 18:10:18 10° N 18:14:05 28° ENE 18:17:50 10° SE
Cosmos 1626 2.8 18:15:41 10° NNW 18:19:07 56° W 18:22:30 10° S
Cosmos 1110 Rocket 4.0 18:16:44 10° NNW 18:21:55 66° ENE 18:27:05 10° SSE
JB-3 4.2 18:20:12 10° NNE 18:23:58 60° E 18:27:46 10° S
Cosmos 2218 Rocket 4.1 18:19:02 10° N 18:25:04 53° ENE 18:31:03 10° SSE
Cosmos 1844 Rocket 3.1 18:21:14 10° NNW 18:26:47 68° WSW 18:32:17 10° SSE
Cosmos 1805 4.1 18:27:01 10° SSE 18:30:12 26° E 18:33:22 10° NNE
USA 305 3.2 18:28:21 10° NW 18:30:18 23° N 18:32:14 10° ENE
PAYLOAD B 4.3 18:24:52 10° SSE 18:30:21 61° ENE 18:35:50 10° N
Cosmos 1980 Rocket 4.4 18:25:47 10° W 18:30:22 25° NW 18:35:01 10° NNE
BREEZE-M DEB (TANK) 2.1 18:29:01 10° W 18:31:14 89° NW 18:34:53 11° E
Okean O Rocket 2.6 18:29:52 10° SE 18:33:40 29° ENE 18:37:31 10° N
In-Cosmos 22 4.3 18:28:24 10° NNW 18:33:52 82° W 18:39:12 10° S
SL-8 R/B 3.7 18:29:14 10° W 18:34:01 82° S 18:38:22 12° E
SL-16 R/B 2.8 18:29:38 10° SW 18:35:16 63° WNW 18:40:55 10° NNE
Cosmos 2219 Rocket 2.7 18:30:40 10° S 18:35:44 37° ESE 18:40:50 10° NE
ATLAS 3B R/B 3.8 18:31:09 10° SSE 18:36:08 22° ESE 18:41:21 10° ENE
CZ-4B DEB 4.2 18:30:45 10° SSE 18:36:13 85° ENE 18:41:42 10° NNW
Cosmos 1943 Rocket 4.0 18:34:20 10° N 18:37:48 16° NNE 18:41:14 10° ENE
COSMO-SKYMED 1 3.4 18:33:42 10° N 18:37:58 55° WNW 18:42:13 10° SSW
Cosmos 1818 4.4 18:34:14 10° NNW 18:39:19 37° NE 18:43:41 13° E
YAOGAN 1 2.6 18:36:13 10° SSE 18:40:31 83° WSW 18:44:52 10° NNW
CENTAUR R/B 4.4 18:36:34 10° WNW 18:42:21 28° N 18:49:07 10° NE
Cosmos 1862 Rocket 3.9 18:39:06 10° NNW 18:43:25 68° W 18:47:42 10° S
Cosmos 1633 Rocket 3.1 18:39:09 10° S 18:43:29 86° WNW 18:47:51 10° N
Landsat 4 3.8 18:40:05 10° SE 18:43:33 48° ENE 18:47:03 10° N
DELTA 2 DEB (DPAF) 4.0 18:41:11 10° NNE 18:45:32 75° ESE 18:49:51 10° S
SL-14 R/B 3.6 18:41:53 10° N 18:45:41 43° ENE 18:49:26 10° SSE
CZ-4C R/B 4.0 18:41:53 10° WNW 18:46:24 27° NNW 18:51:52 10° NE
Resurs 01 Rocket 3.0 18:44:29 14° E 18:46:47 21° ENE 18:50:04 10° NNE
CZ-4B R/B 4.0 18:47:17 10° S 18:50:38 40° W 18:53:58 10° NNW
Cosmos 864 Rocket 4.5 18:44:39 10° N 18:51:01 81° E 18:57:15 10° SSE
COSMOS 2455 3.4 18:46:27 10° NNW 18:52:11 42° NE 18:56:34 16° ESE
Cosmos 1302 Rocket 4.2 18:48:01 10° NNW 18:53:13 55° ENE 18:58:08 11° SE
NOSS 2-3 (C) 3.8 18:49:50 10° S 18:53:18 37° ESE 18:57:10 10° NE
CZ-4C R/B 3.6 18:50:18 10° NNE 18:53:25 32° E 18:56:32 10° SSE
ISS -3.4 18:50:40 10° WNW 18:53:58 57° N 18:56:06 20° E
Okean 3 3.3 18:50:53 10° N 18:55:01 86° ENE 18:59:09 10° S
APEX 3.9 18:51:53 10° NNW 18:55:36 34° NE 18:57:26 21° ESE
PSLV R/B 3.7 18:51:51 10° SSE 18:55:37 63° ENE 18:59:30 10° N
CZ-4B R/B 3.1 18:50:31 10° SSE 18:55:45 69° ENE 19:01:03 10° N
USA 306 2.8 18:52:17 10° WNW 18:56:05 60° NNE 18:58:31 21° E
Cosmos 1331 Rocket 4.2 18:51:12 10° NNW 18:56:28 74° WSW 19:01:44 10° SSE
Cosmos 1726 1.9 18:54:49 10° S 18:58:12 84° W 19:01:37 10° N
Cosmos 2181 Rocket 4.0 18:52:00 10° S 18:58:24 73° E 19:04:45 10° NNE
NOSS 2-3 (D) 3.7 18:54:55 10° SSW 18:58:24 39° ESE 19:02:18 10° NE
Cosmos 1733 3.0 18:54:51 10° S 18:58:30 80° E 19:02:14 10° NNE
USA 215 3.8 18:53:36 10° ENE 18:59:28 34° SE 19:05:19 10° SSW
Cosmos 2322 Rocket 2.8 18:54:09 10° SW 18:59:42 60° WNW 19:05:17 10° NNE
Resurs 1-3 3.7 18:56:04 10° SSE 19:00:18 53° ENE 19:04:34 10° N
Okean-O 3.8 18:59:51 19° E 19:01:38 25° ENE 19:05:15 10° N
CSL-04 Rocket 3.9 19:00:01 13° SE 19:04:29 45° ENE 19:09:31 10° N
Cosmos 2278 Rocket 3.0 18:59:21 10° NNW 19:04:34 35° NE 19:07:41 20° E
USA 307 2.3 19:04:42 10° WNW 19:07:14 44° NNE 19:08:03 32° ENE
Cosmos 2242 Rocket 4.1 19:03:36 10° N 19:07:47 38° ENE 19:10:13 21° SE
USA 308 2.4 19:05:25 10° WNW 19:08:53 82° SSW 19:10:45 27° ESE
[s.n.70702] 3.0 19:07:10 10° W 19:09:40 49° NNW 19:10:43 27° NE
[s.n.70703] 3.0 19:07:10 10° W 19:09:40 49° NNW 19:10:43 27° NE
[s.n.70700] 3.0 19:07:10 10° W 19:09:40 49° NNW 19:10:44 27° NE
[s.n.70713] 3.0 19:07:10 10° W 19:09:40 49° NNW 19:10:44 27° NE
[s.n.70399] 3.0 19:07:10 10° W 19:09:40 49° NNW 19:10:44 27° NE
[s.n.70701] 3.0 19:07:11 10° W 19:09:40 49° NNW 19:10:44 27° NE
[s.n.70707] 3.0 19:07:11 10° W 19:09:40 49° NNW 19:10:44 27° NE
[s.n.70709] 3.0 19:07:11 10° W 19:09:41 49° NNW 19:10:44 27° NE
[s.n.70706] 3.0 19:07:11 10° W 19:09:41 49° NNW 19:10:44 27° NE
[s.n.70704] 3.1 19:07:11 10° W 19:09:41 49° NNW 19:10:45 27° NE
[s.n.70705] 3.1 19:07:11 10° W 19:09:41 49° NNW 19:10:45 27° NE
[s.n.70456] 3.1 19:07:12 10° W 19:09:41 49° NNW 19:10:45 27° NE
[s.n.70708] 3.1 19:07:12 10° W 19:09:41 49° NNW 19:10:45 27° NE
[s.n.70455] 3.1 19:07:12 10° W 19:09:41 49° NNW 19:10:45 27° NE
[s.n.70715] 3.1 19:07:12 10° W 19:09:42 49° NNW 19:10:46 27° NE
[s.n.70714] 3.1 19:07:12 10° W 19:09:42 49° NNW 19:10:46 27° NE
[s.n.70711] 3.1 19:07:12 10° W 19:09:42 49° NNW 19:10:46 27° NE
[s.n.70710] 3.1 19:07:12 10° W 19:09:42 49° NNW 19:10:46 27° NE
[s.n.70400] 3.0 19:07:13 10° W 19:09:43 49° NNW 19:10:46 27° NE
[s.n.70716] 3.0 19:07:13 10° W 19:09:43 49° NNW 19:10:46 27° NE
[s.n.70712] 3.0 19:07:13 10° W 19:09:44 49° NNW 19:10:47 27° NE
USA 186 2.0 19:09:04 32° ESE 19:09:58 42° ENE 19:12:51 10° N
Okean 2 3.4 19:06:26 10° N 19:10:24 53° ENE 19:13:15 18° SSE
Cosmos 1470 Rocket 3.8 19:07:06 10° SSW 19:11:26 73° W 19:15:50 10° N
Landsat 7 3.8 19:07:46 10° SSE 19:12:28 86° WSW 19:17:14 10° NNW
ADEOS Rocket 3.8 19:07:44 13° SE 19:14:25 49° ENE 19:21:29 10° N
Cosmos 1340 Rocket 3.2 19:11:13 10° NNW 19:15:16 67° W 19:19:16 10° S
NOSS 7 (H) 4.4 19:14:42 10° SSW 19:18:47 66° SE 19:20:40 23° NE
Feng Yun 1-1 Rocket 4.3 19:14:35 10° SSE 19:20:27 83° ENE 19:26:15 10° NNW
SME Rocket 4.2 19:14:03 10° SSE 19:22:30 82° ENE 19:27:56 10° NNW
SJ-6B 3.0 19:18:41 10° S 19:22:42 77° WSW 19:26:45 10° NNW
Cosmos 1766 3.6 19:22:22 35° ESE 19:23:03 38° E 19:26:36 10° NNE
Cosmos 1934 Rocket 4.5 19:18:38 10° N 19:24:38 41° ENE 19:27:38 26° ESE
SPOT 1/Viking Rocket 3.5 19:20:48 18° SSE 19:24:39 63° ENE 19:29:45 10° N
SPOT 5 4.4 19:27:42 17° ENE 19:27:42 17° ENE 19:30:37 10° NNE
Cosmos 2360 Rocket 3.1 19:23:40 10° SW 19:29:10 51° NW 19:34:42 10° NNE
NOSS 2-3 (E) 3.1 19:25:34 10° SW 19:29:18 82° SE 19:33:38 10° NE
Cosmos 2333 4.5 19:24:19 10° SW 19:29:55 70° WNW 19:35:35 10° NNE
Cosmos 2239 Rocket 4.4 19:25:15 10° N 19:31:24 66° ENE 19:36:21 16° SSE
Cosmos 2333 Rocket 2.7 19:25:50 10° SW 19:31:26 62° WNW 19:37:06 10° NNE
NOSS 2-2 (E) 2.9 19:28:21 10° SSW 19:31:25 52° SE 19:31:25 52° SE
Cosmos 614 Rocket 4.3 19:27:06 10° S 19:31:45 38° ESE 19:36:26 10° NE
Cosmos 1821 Rocket 4.0 19:26:01 10° N 19:32:16 89° E 19:38:36 10° S
Lacrosse 5 3.2 19:28:21 10° WNW 19:33:02 35° N 19:36:38 16° NE
Cosmos 2237 Rocket 4.1 19:39:21 13° NE 19:39:21 13° NE 19:40:07 10° NE
USA 267 3.3 19:31:55 27° ESE 19:35:43 71° NNE 19:42:16 10° NW
Cosmos 2322 3.6 19:30:23 10° SSW 19:36:05 73° ESE 19:41:49 10° NNE
COSMOS 2428 2.7 19:30:52 10° S 19:36:25 59° ESE 19:42:00 10° NE
NOSS 3-1 (C) 3.4 19:32:09 10° S 19:36:48 41° ESE 19:42:16 10° NE
Cosmos 2369 Rocket 4.2 19:35:39 10° N 19:38:28 14° NNE 19:40:26 12° NE
Cosmos 1703 Rocket 4.3 19:34:45 10° NNW 19:39:06 55° W 19:43:26 10° S
Cosmos 1975 4.4 19:38:57 10° SW 19:42:33 36° WNW 19:46:09 10° N
CZ-4 R/B 3.0 19:42:18 10° SSW 19:45:50 33° W 19:49:20 10° NNW
Cosmos 1933 Rocket 4.3 19:46:04 10° SSW 19:50:21 53° WNW 19:54:40 10° N
Nadezhda 3 Rocket 3.9 19:44:17 10° S 19:50:38 79° E 19:57:02 10° NNE
Cosmos 1269 Rocket 4.0 19:50:48 10° S 19:55:56 54° ESE 20:01:07 10° NNE
ERS-1 Rocket 4.2 20:00:39 26° NE 20:00:39 26° NE 20:04:17 10° N
CARTOSAT-1 3.4 20:02:54 73° E 20:03:05 75° ENE 20:07:23 10° N
Okean O Rocket 3.1 20:06:13 12° SSW 20:09:53 35° W 20:13:59 10° NNW
MOS 1 4.2 20:08:59 53° SE 20:10:16 71° ENE 20:15:54 10° NNW
SL-8 R/B 4.2 20:11:44 10° W 20:16:16 45° SSW 20:16:16 45° SSW
Cosmos 2219 Rocket 3.3 20:14:18 10° SW 20:19:37 43° NW 20:24:58 10° NNE
Cosmos 1943 Rocket 2.3 20:17:12 10° NNW 20:22:49 58° ENE 20:23:02 58° ENE
Resurs 01 Rocket 2.2 20:22:00 45° SW 20:22:54 54° W 20:27:17 10° NNW
Cosmos 1818 4.0 20:17:47 10° NW 20:23:08 55° WSW 20:24:19 45° SSW
IRS-1C Rocket 4.0 20:22:26 63° S 20:23:19 85° WSW 20:28:37 10° NNW
Terra 3.2 20:25:02 26° NNE 20:25:02 26° NNE 20:27:46 10° N
ATLAS 3B R/B 2.7 20:18:52 10° SW 20:25:49 86° SE 20:33:20 10° NE
ISS -1.5 20:27:30 10° WNW 20:29:01 24° W 20:29:01 24° W
USA 306 4.3 20:28:34 10° WNW 20:31:00 30° WSW 20:31:00 30° WSW
CENTAUR R/B 4.2 20:28:38 10° NW 20:35:23 34° NNE 20:39:11 24° ENE
CZ-4C R/B 4.3 20:32:10 10° NW 20:36:58 23° N 20:41:18 14° NE
Okean-O 3.6 20:37:22 40° WSW 20:37:52 42° W 20:42:04 10° NNW
COSMOS 2455 3.5 20:32:28 10° NW 20:38:13 47° WSW 20:39:43 39° SSW
USA 215 3.2 20:39:30 31° NE 20:42:58 87° NW 20:49:31 10° WSW
Spot 2 Rocket 4.4 20:50:15 40° NNE 20:50:15 40° NNE 20:53:41 10° N
Cosmos 2278 Rocket 2.8 20:43:23 10° NW 20:48:50 49° WSW 20:49:33 46° SW
IRS-1A Rocket 4.2 20:50:27 76° W 20:50:27 76° W 20:55:56 10° NNW
Ariane Rocket 3.6 20:53:18 52° N 20:53:18 52° N 20:57:11 10° NNW
Meteor 2-5 Rocket 3.7 20:46:43 10° NNW 20:52:25 77° W 20:52:25 77° W
Cosmos 1605 Rocket 3.8 20:47:00 10° N 20:53:08 81° W 20:53:24 78° SW
NOSS 0 Rocket 4.1 20:49:08 10° SW 20:55:18 72° WNW 21:01:34 10° NNE
ADEOS Rocket 4.4 20:54:42 20° SSW 20:59:53 45° W 21:07:02 10° NNW
Meteor 1-15 Rocket 4.5 21:03:10 67° W 21:03:12 67° WNW 21:08:52 10° N
SPOT 5 4.0 21:06:53 40° NNW 21:06:53 40° NNW 21:09:50 10° NNW
Lacrosse 5 3.2 21:12:05 10° NW 21:15:49 37° NNW 21:15:49 37° NNW
USA 267 3.7 21:19:16 48° SW 21:19:16 48° SW 21:25:17 10° WNW
Cosmos 2237 Rocket 3.2 21:21:04 41° N 21:21:04 41° N 21:24:53 10° NNE
Meteor 1-24 Rocket 4.5 21:15:29 10° NNW 21:20:08 45° WNW 21:20:08 45° WNW
COSMOS 2428 4.4 21:16:04 10° WSW 21:21:02 30° NW 21:26:02 10° NNE
Cosmos 2369 Rocket 3.3 21:18:32 10° NNW 21:22:12 36° N 21:22:12 36° N
NOSS 3-1 (C) 4.1 21:22:27 10° WSW 21:27:30 46° NW 21:33:38 10° NE
Terra 4.1 22:03:47 20° NW 22:03:47 20° NW 22:05:32 10° NNW
Cosmos 1943 Rocket 4.1 22:01:31 10° NW 22:04:32 23° WNW 22:04:32 23° WNW
ATLAS 3B R/B 4.1 22:10:51 10° W 22:17:26 37° NNW 22:24:24 10° NE
USA 215 4.1 22:26:55 44° NW 22:26:55 44° NW 22:31:55 10° W
CZ-4C R/B 3.8 22:20:58 10° NW 22:26:24 40° NNE 22:26:24 40° NNE
CENTAUR R/B 3.4 22:19:28 10° NW 22:26:19 63° N 22:26:19 63° N
SL-16 R/B 4.4 23:10:02 21° N 23:10:02 21° N 23:12:10 10° NNE
